Location: Grossmotten
(48.5500°N, 15.3833°E)
Time: 05:58:24
(UTC+00:00)

Cosmos 1437 - Pass Details

Date: 15 November 2019
Orbit: 380 x 384 km, 81.2° (Epoch: 15 December)

Event Time Altitude Azimuth Distance (km) Brightness Sun altitude
Rises 04:45:10 0° 174° (S) 2,246 6.7 -13.3°
Reaches altitude 10° 04:47:13 10° 166° (SSE) 1,400 5.8 -13.0°
Maximum altitude 04:50:04 38° 96° (E) 607 4.2 -12.5°
Drops below altitude 10° 04:52:57 10° 27° (NNE) 1,416 5.6 -12.1°
Sets 04:55:01 0° 19° (NNE) 2,277 6.5 -11.8°
